| time (UTC) | temp C | wind direction | speed KPH | gust KPH | rain 1hr cm | rain 24hr cm | rain mn cm | humidity % | barometer mb |
| 20260510161531 | 11 | 39 | 6.4 | 22.5 | 0.00 | 0.00 | 0.00 | 70 | 1014.6 |
| 20260510160032 | 11 | 13 | 9.7 | 25.7 | 0.00 | 0.00 | 0.00 | 70 | 1014.8 |
| 20260510154539 | 11 | 353 | 4.8 | 19.3 | 0.00 | 0.00 | 0.00 | 72 | 1014.9 |
| 20260510153033 | 11 | 12 | 6.4 | 20.9 | 0.00 | 0.00 | 0.00 | 72 | 1015.0 |
| 20260510151531 | 11 | 103 | 4.8 | 19.3 | 0.00 | 0.00 | 0.00 | 74 | 1015.0 |
| 20260510150032 | 11 | 8 | 9.7 | 22.5 | 0.00 | 0.00 | 0.00 | 74 | 1015.3 |
| 20260510144539 | 10 | 25 | 6.4 | 29.0 | 0.00 | 0.00 | 0.00 | 76 | 1015.3 |
| 20260510143039 | 10 | 20 | 4.8 | 19.3 | 0.00 | 0.00 | 0.00 | 76 | 1015.5 |
| 20260510141531 | 10 | 14 | 6.4 | 20.9 | 0.00 | 0.00 | 0.00 | 77 | 1015.7 |
| 20260510140036 | 10 | 58 | 3.2 | 16.1 | 0.00 | 0.00 | 0.00 | 77 | 1016.0 |
| 20260510134533 | 11 | 41 | 3.2 | 17.7 | 0.00 | 0.00 | 0.00 | 77 | 1016.1 |
| 20260510133032 | 11 | 55 | 4.8 | 17.7 | 0.00 | 0.00 | 0.00 | 76 | 1016.1 |
| 20260510131536 | 11 | 11 | 4.8 | 22.5 | 0.00 | 0.00 | 0.00 | 75 | 1016.0 |
| 20260510130029 | 11 | 70 | 8.0 | 22.5 | 0.00 | 0.00 | 0.00 | 73 | 1016.1 |
| 20260510124530 | 12 | 63 | 6.4 | 22.5 | 0.00 | 0.00 | 0.00 | 71 | 1016.2 |
| 20260510123034 | 12 | 19 | 11.3 | 27.4 | 0.00 | 0.00 | 0.00 | 69 | 1016.3 |
| 20260510121530 | 12 | 340 | 4.8 | 22.5 | 0.00 | 0.00 | 0.00 | 69 | 1016.4 |
| 20260510120032 | 12 | 11 | 9.7 | 29.0 | 0.00 | 0.00 | 0.00 | 69 | 1016.5 |
| 20260510114532 | 12 | 39 | 11.3 | 22.5 | 0.00 | 0.00 | 0.00 | 69 | 1016.4 |
| 20260510113031 | 12 | 63 | 8.0 | 20.9 | 0.00 | 0.00 | 0.00 | 67 | 1016.6 |
| 20260510111530 | 12 | 99 | 8.0 | 29.0 | 0.00 | 0.00 | 0.00 | 68 | 1016.7 |
| 20260510110038 | 12 | 77 | 6.4 | 19.3 | 0.00 | 0.00 | 0.00 | 69 | 1016.8 |
| 20260510104530 | 12 | 272 | 8.0 | 20.9 | 0.00 | 0.00 | 0.00 | 70 | 1017.0 |
| 20260510103030 | 11 | 78 | 8.0 | 19.3 | 0.00 | 0.00 | 0.00 | 71 | 1017.0 |
| 20260510101529 | 11 | 31 | 8.0 | 20.9 | 0.00 | 0.00 | 0.00 | 72 | 1017.2 |
| 20260510100029 | 11 | 24 | 11.3 | 29.0 | 0.00 | 0.00 | 0.00 | 71 | 1017.1 |
| 20260510094545 | 11 | 76 | 9.7 | 37.0 | 0.00 | 0.00 | 0.00 | 72 | 1017.0 |
| 20260510093048 | 11 | 37 | 8.0 | 24.1 | 0.00 | 0.00 | 0.00 | 73 | 1017.2 |
| 20260510091541 | 11 | 44 | 8.0 | 25.7 | 0.00 | 0.00 | 0.00 | 75 | 1017.1 |
| 20260510090030 | 10 | 13 | 6.4 | 25.7 | 0.00 | 0.00 | 0.00 | 77 | 1017.2 |
| 20260510084529 | 10 | 326 | 9.7 | 20.9 | 0.00 | 0.00 | 0.00 | 78 | 1017.5 |
| 20260510083029 | 10 | 332 | 9.7 | 25.7 | 0.00 | 0.00 | 0.00 | 78 | 1017.5 |
| 20260510081530 | 10 | 53 | 8.0 | 27.4 | 0.00 | 0.00 | 0.00 | 79 | 1017.7 |
| 20260510080030 | 9 | 15 | 4.8 | 27.4 | 0.00 | 0.00 | 0.00 | 80 | 1017.5 |
| 20260510074532 | 9 | 99 | 9.7 | 27.4 | 0.00 | 0.00 | 0.00 | 80 | 1017.6 |
| 20260510073040 | 9 | 30 | 6.4 | 27.4 | 0.00 | 0.00 | 0.00 | 81 | 1017.7 |
| 20260510071529 | 9 | 352 | 6.4 | 17.7 | 0.00 | 0.00 | 0.00 | 83 | 1017.6 |
| 20260510070033 | 8 | 98 | 4.8 | 19.3 | 0.00 | 0.00 | 0.00 | 84 | 1017.6 |
| 20260510064532 | 8 | 106 | 4.8 | 19.3 | 0.00 | 0.00 | 0.00 | 84 | 1017.4 |
| 20260510063032 | 8 | 57 | 3.2 | 16.1 | 0.00 | 0.00 | 0.00 | 85 | 1017.6 |
| 20260510061532 | 8 | 34 | 1.6 | 16.1 | 0.00 | 0.00 | 0.00 | 86 | 1017.5 |
| 20260510060032 | 8 | 66 | 4.8 | 14.5 | 0.00 | 0.00 | 0.00 | 87 | 1017.4 |
| 20260510054532 | 8 | 63 | 1.6 | 11.3 | 0.00 | 0.00 | 0.00 | 87 | 1017.4 |
| 20260510053050 | 7 | 65 | 4.8 | 11.3 | 0.00 | 0.00 | 0.00 | 88 | 1017.3 |
| 20260510051530 | 7 | 309 | 1.6 | 11.3 | 0.00 | 0.00 | 0.00 | 88 | 1017.5 |
| 20260510050030 | 7 | 0 | 1.6 | 9.7 | 0.00 | 0.00 | 0.00 | 88 | 1017.6 |
| 20260510044530 | 7 | 355 | 1.6 | 12.9 | 0.00 | 0.00 | 0.00 | 87 | 1017.3 |
| 20260510043040 | 7 | 46 | 1.6 | 14.5 | 0.00 | 0.00 | 0.00 | 87 | 1017.4 |
| 20260510041531 | 8 | 27 | 3.2 | 14.5 | 0.00 | 0.00 | 0.00 | 87 | 1017.3 |
| 20260510040039 | 8 | 46 | 1.6 | 16.1 | 0.00 | 0.00 | 0.00 | 86 | 1017.4 |
| 20260510034532 | 8 | 18 | 3.2 | 11.3 | 0.00 | 0.00 | 0.00 | 86 | 1017.6 |
| 20260510033030 | 8 | 0 | 1.6 | 11.3 | 0.00 | 0.00 | 0.00 | 86 | 1017.7 |
| 20260510031530 | 8 | 89 | 1.6 | 12.9 | 0.00 | 0.00 | 0.00 | 85 | 1017.8 |
| 20260510030031 | 8 | 6 | 3.2 | 16.1 | 0.00 | 0.00 | 0.00 | 85 | 1017.8 |
| 20260510024531 | 8 | 82 | 3.2 | 16.1 | 0.00 | 0.00 | 0.00 | 84 | 1017.8 |
| 20260510023032 | 8 | 27 | 4.8 | 16.1 | 0.00 | 0.00 | 0.00 | 82 | 1017.7 |
| 20260510021539 | 8 | 20 | 3.2 | 12.9 | 0.00 | 0.00 | 0.00 | 79 | 1017.8 |
| 20260510020032 | 9 | 23 | 1.6 | 12.9 | 0.00 | 0.00 | 0.00 | 75 | 1017.7 |
| 20260510014533 | 9 | 55 | 3.2 | 12.9 | 0.00 | 0.00 | 0.00 | 73 | 1017.7 |
| 20260510013035 | 9 | 335 | 1.6 | 8.0 | 0.00 | 0.00 | 0.00 | 72 | 1017.7 |
| 20260510011539 | 10 | 0 | 1.6 | 9.7 | 0.00 | 0.00 | 0.00 | 72 | 1017.6 |
| 20260510010032 | 10 | 67 | 3.2 | 12.9 | 0.00 | 0.00 | 0.00 | 70 | 1017.7 |
| 20260510004533 | 10 | 359 | 3.2 | 11.3 | 0.00 | 0.00 | 0.00 | 68 | 1017.7 |
| 20260510003031 | 10 | 52 | 0.0 | 6.4 | 0.00 | 0.00 | 0.00 | 69 | 1017.8 |
| 20260510001534 | 10 | 94 | 0.0 | 3.2 | 0.00 | 0.00 | 0.00 | 67 | 1017.7 |
| 20260510000040 | 10 | 58 | 1.6 | 6.4 | 0.00 | 0.00 | 0.00 | 66 | 1017.6 |
| 20260509234550 | 11 | 56 | 1.6 | 11.3 | 0.00 | 0.00 | 0.00 | 65 | 1017.8 |
| 20260509233033 | 11 | 57 | 3.2 | 11.3 | 0.00 | 0.00 | 0.00 | 64 | 1017.7 |
| 20260509231531 | 11 | 79 | 1.6 | 9.7 | 0.00 | 0.00 | 0.00 | 62 | 1017.6 |
| 20260509230034 | 11 | 73 | 1.6 | 8.0 | 0.00 | 0.00 | 0.00 | 61 | 1017.4 |
| 20260509224531 | 11 | 27 | 0.0 | 6.4 | 0.00 | 0.00 | 0.00 | 60 | 1017.6 |
| 20260509223032 | 11 | 64 | 0.0 | 8.0 | 0.00 | 0.00 | 0.00 | 58 | 1017.5 |
| 20260509221529 | 11 | 0 | 1.6 | 6.4 | 0.00 | 0.00 | 0.00 | 56 | 1017.5 |
| 20260509220032 | 12 | 0 | 0.0 | 16.1 | 0.00 | 0.00 | 0.00 | 54 | 1017.6 |
| 20260509214537 | 12 | 23 | 3.2 | 16.1 | 0.00 | 0.00 | 0.00 | 54 | 1017.6 |
| 20260509213033 | 12 | 0 | 0.0 | 8.0 | 0.00 | 0.00 | 0.00 | 56 | 1017.5 |
| 20260509211532 | 12 | 64 | 3.2 | 14.5 | 0.00 | 0.00 | 0.00 | 53 | 1017.6 |
| 20260509210034 | 13 | 66 | 6.4 | 16.1 | 0.00 | 0.00 | 0.00 | 53 | 1017.3 |
| 20260509204536 | 13 | 66 | 3.2 | 12.9 | 0.00 | 0.00 | 0.00 | 54 | 1017.1 |
| 20260509203031 | 13 | 68 | 1.6 | 8.0 | 0.00 | 0.00 | 0.00 | 53 | 1017.0 |
| 20260509201529 | 14 | 95 | 4.8 | 17.7 | 0.00 | 0.00 | 0.00 | 52 | 1017.0 |
| 20260509200032 | 14 | 49 | 4.8 | 12.9 | 0.00 | 0.00 | 0.00 | 52 | 1016.9 |
| 20260509194534 | 15 | 76 | 3.2 | 11.3 | 0.00 | 0.00 | 0.00 | 52 | 1016.9 |
| 20260509193032 | 15 | 60 | 1.6 | 8.0 | 0.00 | 0.00 | 0.00 | 50 | 1016.7 |
| 20260509191547 | 16 | 56 | 4.8 | 14.5 | 0.00 | 0.00 | 0.00 | 47 | 1016.7 |
| 20260509190033 | 16 | 0 | 3.2 | 11.3 | 0.00 | 0.00 | 0.00 | 51 | 1016.6 |
| 20260509184544 | 16 | 77 | 3.2 | 12.9 | 0.00 | 0.00 | 0.00 | 50 | 1016.3 |
| 20260509183043 | 17 | 63 | 4.8 | 17.7 | 0.00 | 0.00 | 0.00 | 52 | 1016.4 |
| 20260509181531 | 17 | 86 | 3.2 | 12.9 | 0.00 | 0.00 | 0.00 | 50 | 1016.3 |
| 20260509180031 | 17 | 63 | 3.2 | 12.9 | 0.00 | 0.00 | 0.00 | 50 | 1016.2 |
| 20260509174532 | 18 | 77 | 4.8 | 12.9 | 0.00 | 0.00 | 0.00 | 48 | 1015.9 |
| 20260509173031 | 18 | 70 | 4.8 | 16.1 | 0.00 | 0.00 | 0.00 | 50 | 1015.6 |
| 20260509171531 | 18 | 60 | 3.2 | 16.1 | 0.00 | 0.00 | 0.00 | 50 | 1015.7 |
| 20260509170030 | 18 | 73 | 3.2 | 14.5 | 0.00 | 0.00 | 0.00 | 49 | 1015.8 |
| 20260509164531 | 18 | 52 | 3.2 | 14.5 | 0.00 | 0.00 | 0.00 | 48 | 1015.8 |
| 20260509163039 | 19 | 75 | 3.2 | 16.1 | 0.00 | 0.00 | 0.00 | 49 | 1015.8 |